www.pogodaiklimat.ru

Погода и климат >> Архив погоды >> Индонезия >> Каимана


ПОГОДА в Каимана

  • Прогноз погоды в Каимана
  • Монитор погоды в Каимана

АРХИВ ПОГОДЫ в Каимана

Время (UTC), дата Ветер
(напр.,м/с)
 
Видим.   Явления Облачность Т
(С)
Тd
(С)
f
(%)
Тe
(С)
Тes
(С)
Комфортность P
(гПа)
Po
(гПа)
Тmin
(С)
Tmax
(С)
R
(мм)
R24
(мм)
S
(см)
12 17.01 штиль 0 6000 м осадки на расстоянии 9/5 450 м
[Cb cap Ac trans Ci sp]
+25.8 +25.0 95 +37 +37 очень
душно
1008.7 1007.8 +32.2 2
15 17.01 С 4 6000 м осадки на расстоянии 9/5 450 м
[Cu Sc Ac trans Ci sp]
+26.2 +24.1 88 +36 +36 очень
душно
1009.6 1008.7
18 17.01 С 6 6000 м осадки на расстоянии 9/5 450 м
[Cu Sc Ac trans Ci sp]
+25.7 +23.4 87 +35 +35 очень
душно
1007.7 1006.8 0.4
21 17.01 С 5 7000 м 9/5 450 м
[Cu Sc Ac trans Ci sp]
+26.1 +22.6 81 +34 +34 очень
душно
1008.2 1007.3
00 18.01 С 2 8000 м 9/5 450 м
[Cu Sc Ac trans Ci sp]
+28.5 +23.2 73 +38 +42 очень
душно
1009.4 1008.5 +25.3 3
03 18.01 С 2 9000 м 9/5 450 м
[Cu Sc Ac trans Ci sp]
+30.4 +23.9 68 +42 +48 опасность
перегрева
1008.8 1007.9
06 18.01 С 5 7000 м осадки на расстоянии 9/5 450 м
[Cu Sc As op Ci sp]
+27.3 +23.3 79 +37 +39 очень
душно
1007.5 1006.6 0.6
09 18.01 СЗ 5 3000 м в посл. час дождь 10/6 450 м
[Cb cap As op]
+25.4 +23.5 89 +34 +34 очень
душно
1009.6 1008.7 22
12 18.01 СЗ 3 4000 м осадки на расстоянии 10/6 450 м
[Cb cap As op]
+27.1 +22.1 74 +35 +35 очень
душно
1009.4 1008.5 +32.7 3
15 18.01 С 3 4000 м осадки на расстоянии 9/5 450 м
[Cb cap As op]
+26.9 +23.4 81 +36 +36 очень
душно
1009.3 1008.4
18 18.01 С 4 4000 м осадки на расстоянии 9/5 450 м
[Cb cap As op]
+27.3 +22.7 76 +36 +36 очень
душно
1007.8 1006.9
21 18.01 С 4 6000 м 9/5 450 м
[Cu Sc As op Ci fib]
+27.0 +23.5 81 +37 +37 очень
душно
1008.1 1007.2
00 19.01 С 4 8000 м 9/5 300 м
[Cu Sc As op Ci fib]
+28.6 +24.0 76 +40 +42 очень
душно
1010.3 1009.4 +24.8 6
03 19.01 С 3 10 км 9/5 450 м
[Cu Sc Ac trans Ci fib]
+30.8 +24.2 68 +43 +48 опасность
перегрева
1008.6 1007.7
06 19.01 СЗ 4 10 км 9/5 450 м
[Cu Sc Ac trans Ci fib]
+32.4 +25.0 65 +46 +48 опасность
перегрева
1006.0 1005.1
09 19.01 Ю 3 8000 м осадки на расстоянии 9/5 450 м
[Cu Sc As op Ci fib]
+28.4 +24.8 81 +41 +41 опасность
перегрева
1007.4 1006.5
12 19.01 штиль 0 6000 м осадки на расстоянии 9/5 450 м
[Cu Sc As op Ci fib]
+26.8 +25.2 91 +39 +39 очень
душно
1008.5 1007.6 +33.5
15 19.01 штиль 0 6000 м 9/5 450 м
[Cu Sc As op Ci fib]
+26.1 +24.7 92 +37 +37 очень
душно
1008.1 1007.2
18 19.01 штиль 0 5000 м осадки на расстоянии 9/5 450 м
[Cu Sc As op Ci fib]
+25.3 +23.9 92 +35 +35 очень
душно
1006.6 1005.7
21 19.01 штиль 0 5000 м осадки на расстоянии 9/5 450 м
[Cu Sc As op Ci fib]
+24.6 +23.4 93 +33 +33 очень
душно
1006.9 1006.0
00 20.01 С 3 10 км 5/3 300 м
[Cu med, cong As trans Ci fib]
+31.1 +23.2 63 +42 +47 опасность
перегрева
1008.2 1007.3 +24.6
03 20.01 С 2 10 км 6/4 480 м
[Cu Sc As trans Ci fib]
+33.5 +25.5 63 +48 +58 опасность
перегрева
1007.4 1006.5
06 20.01 ЮЗ 2 9000 м в посл. час ливневой дождь 8/5 450 м
[Cu Sc As op Ci fib]
+30.3 +25.1 74 +44 +48 опасность
перегрева
1005.1 1004.2 0.4
09 20.01 С 4 7000 м осадки на расстоянии 9/5 450 м
[Cb cap As op]
+26.8 +24.5 87 +38 +38 очень
душно
1006.0 1005.1
12 20.01 С 4 5000 м осадки на расстоянии 10/6 450 м
[Cb cap As op]
+29.0 +24.1 75 +40 +40 очень
душно
1008.1 1007.2 +35.6
15 20.01 С 3 6000 м осадки на расстоянии 10/5 450 м
[Cb cap As op]
+28.5 +23.4 74 +39 +39 очень
душно
1008.8 1007.9
18 20.01 С 3 6000 м 9/6 450 м
[Cu Sc As op]
+28.8 +21.1 63 +36 +36 очень
душно
1006.5 1005.6
21 20.01 С 3 6000 м 8/5 450 м
[Cu Sc As trans]
+27.2 +23.9 82 +37 +37 очень
душно
1006.7 1005.8
00 21.01 С 3 9000 м 6/4 300 м
[Cu Sc Ac trans Ci fib]
+28.7 +24.5 78 +41 +45 опасность
перегрева
1008.7 1007.8 +26.5 0.4
03 21.01 С 4 10 км 6/4 450 м
[Cu Sc Ac trans Ci fib]
+32.9 +25.2 64 +47 +55 опасность
перегрева
1006.8 1005.9
06 21.01 С 3 10 км 6/4 450 м
[Cu Sc Ac trans Ci fib]
+34.1 +26.3 64 +51 +56 опасность
перегрева
1004.4 1003.5
09 21.01 штиль 0 10 км 6/4 450 м
[Cu Sc Ac trans Ci fib]
+31.5 +26.8 76 +49 +49 опасность
перегрева
1005.0 1004.1
12 21.01 СЗ 3 5000 м осадки на расстоянии 8/4 450 м
[Cb cap Ac trans Ci sp]
+29.7 +25.7 79 +44 +44 опасность
перегрева
1007.7 1006.8 +34.9
15 21.01 штиль 0 5000 м осадки на расстоянии 9/5 450 м
[Cb cap As op Ci fib]
+28.9 +25.7 83 +43 +43 опасность
перегрева
1008.5 1007.6
18 21.01 С 2 5000 м в посл. час дождь 9/5 450 м
[Cb cap As op Ci fib]
+26.9 +25.3 91 +39 +39 очень
душно
1007.3 1006.4 1
21 21.01 штиль 0 5000 м 8/4 450 м
[Cu Sc As op Ci fib]
+26.0 +24.8 93 +37 +37 очень
душно
1007.4 1006.5
00 22.01 штиль 0 10 км 8/4 300 м
[Cu Sc As op Ci fib]
+28.1 +25.1 84 +41 +46 опасность
перегрева
1009.0 1008.1 +25.8 1
03 22.01 ЮЗ 2 10 км 8/4 450 м
[Cu Sc As op Ci fib]
+30.0 +26.0 79 +45 +53 опасность
перегрева
1007.5 1006.6
06 22.01 штиль 0 10 км 9/5 450 м
[Cu Sc As op Ci sp]
+31.2 +25.3 71 +45 +50 опасность
перегрева
1005.4 1004.5
09 22.01 штиль 0 7000 м осадки на расстоянии 9/5 450 м
[Cu Sc As op Ci fib]
+30.4 +25.2 74 +44 +44 опасность
перегрева
1005.9 1004.0
12 22.01 штиль 0 5000 м осадки на расстоянии 9/5 450 м
[Cu Sc As op Ci fib]
+27.6 +26.2 92 +42 +42 опасность
перегрева
1008.7 1007.8 +32.0
15 22.01 штиль 0 5000 м осадки на расстоянии 9/5 450 м
[Cu Sc As op Ci fib]
+26.9 +25.9 94 +40 +40 очень
душно
1008.9 1008.0
18 22.01 штиль 0 5000 м 9/5 450 м
[Cu Sc As op Ci fib]
+26.5 +25.3 93 +38 +38 очень
душно
1007.5 1006.6
21 22.01 штиль 0 6000 м 9/5 450 м
[Cu Sc As op Ci fib]
+25.5 +24.8 96 +36 +36 очень
душно
1007.8 1006.9
00 23.01 С 2 10 км 6/4 300 м
[Cu Sc Ac trans Ci fib]
+30.8 +25.6 74 +45 +50 опасность
перегрева
1009.2 1008.3 +25.4
03 23.01 СЗ 3 7000 м осадки на расстоянии 8/5 450 м
[Cu Sc Ac trans Ci fib]
+30.1 +24.0 70 +42 +48 опасность
перегрева
1006.8 1005.9
06 23.01 С 3 9000 м осадки на расстоянии 8/5 450 м
[Cu Sc Ac trans Ci fib]
+35.3 +25.5 57 +50 +53 опасность
перегрева
1005.2 1004.3
09 23.01 СЗ 3 7000 м осадки на расстоянии 8/5 450 м
[Cu Sc Ac trans Ci fib]
+30.1 +24.0 70 +42 +42 опасность
перегрева
1006.8 1005.9
12 23.01 СЗ 2 5000 м осадки на расстоянии 9/5 450 м
[Cu Sc As op Ci fib]
+29.7 +24.6 74 +42 +42 опасность
перегрева
1009.0 1008.1 +35.5
15 23.01 штиль 0 5000 м в посл. час дождь 9/5 450 м
[Cu Sc As op Ci fib]
+28.2 +25.4 85 +41 +41 опасность
перегрева
1009.2 1008.3 0.0
18 23.01 С 3 5000 м осадки на расстоянии 9/5 450 м
[Cu Sc As op Ci fib]
+28.9 +24.2 76 +40 +40 очень
душно
1007.9 1007.0 0.0
21 23.01 С 4 6000 м осадки на расстоянии 9/5 450 м
[Cu Sc As op Ci fib]
+27.0 +24.6 87 +38 +38 очень
душно
1008.9 1008.0
00 24.01 штиль 0 4000 м в посл. час дождь 10/6 300 м
[Cb cap As op]
+24.3 +23.3 94 +33 +34 очень
душно
1012.1 1011.2 +24.5 3
03 24.01 штиль 0 8000 м осадки на расстоянии 10/6 450 м
[Cb cap As op]
+26.2 +22.9 82 +35 +37 очень
душно
1010.4 1009.5 6
06 24.01 штиль 0 8000 м осадки на расстоянии 10/6 450 м
[Cb cap As op]
+28.4 +24.4 79 +40 +41 очень
душно
1008.1 1007.2
09 24.01 штиль 0 6000 м осадки на расстоянии 10/6 450 м
[Cu Sc As op]
+27.7 +25.5 88 +41 +41 опасность
перегрева
1009.9 1009.0

 

Местоположение метеостанции Каимана (Индонезия): широта -3.67 долгота 133.75 высота над уровнем моря 3 м.

В архиве по умолчанию представлена погода в Каимана за последнюю неделю. Архивные данные за месяц целиком и за предыдущие месяцы, начиная с января 2011 года, Вы можете получить, выбрав интересующий диапазон дат из раскрывающегося списка и нажав кнопку "Ввод!".


*Определитесь, кто Вы:
робот инопланетянин человек

Внимание! Время в таблицах - всемирное. Для получения местного времени необходимо прибавить поправку, которая равна 9 ч.

Смотрите также архив погоды в соседних городах и на ближайших метеорологических станциях:

Погода в Факфаке (Индонезия) (185 км)
Погода в Набире (Индонезия) (198 км)
Погода в Туале (Индонезия) (250 км)
Погода в Энаротали (Индонезия) (292 км)
Погода в Маноквари (Индонезия) (312 км)
Погода в Гесере (Индонезия) (324 км)
Погода в Серуи (Индонезия) (341 км)
Погода в Биаке (Индонезия) (381 км)
Погода в Аэропорту Соронг-Джефман (Индонезия) (423 км)
Погода в Коконао (Индонезия) (436 км)

Пояснения к столбцам:

Ветер - указаны скорость ветра в м/с - средняя за 10 мин, порывы в срок и между сроками (в фигурных скобках) и направление, откуда дует ветер: С - северный, СВ - северо-восточный, В - восточный, ЮВ - юго-восточный, Ю - южный, ЮЗ - юго-западный, З - западный, СЗ - северо-западный.
Видимость - горизонтальная дальность видимости в метрах или километрах. При видимости от 1 до 10 км при отсутствии осадков обычно наблюдается дымка, при ухудшении видимости до 1 км и менее - туман. В сухую погоду видимость может ухудшаться дымом, пылью или мглою.
Явления - указаны атмосферные явления, наблюдавшиеся в срок или в последний час перед сроком; фигурными скобками обозначены явления, наблюдавшиеся между сроками (за 1-3 часа до срока); квадратными скобками обозначены град или гололедные отложения с указанием их диаметра в мм.
Облачность - указаны через наклонную черту общая и нижняя облачность в баллах и высота нижней границы облаков в метрах; квадратными скобками обозначены формы облаков: Ci - перистые, Cs - перисто-слоистые, Cc - перисто-кучевые, Ac - высококучевые, As - высокослоистые, Sc - слоисто-кучевые, Ns - слоисто-дождевые, Cu - кучевые, Cb - кучево-дождевые. Подробнее классификацию облаков см. в Атласе облаков (PDF).
T - Температура воздуха - температура, измеренная на высоте 2 м над землей.
Td - Температура точки росы - температура, при понижении до которой содержащийся в воздухе водяной пар достигнет насыщения.
f - Относительная влажность воздуха - влажноcть воздуха, измеренная на высоте 2 м над землей.
Te - Эффективная температура - температура, которую ощущает одетый по сезону человек в тени. Характеристика душности погоды. При расчете учитывается влияние влажности воздуха и скорости ветра на теплоощущения человека.
Tes - Эффективная температура на солнце - температура, которую ощущает человек, с поправкой на солнечный нагрев. Характеристика знойности погоды. Зависит от высоты солнца над горизонтом, облачности и скорости ветра. Ночью, в пасмурную погоду, а также при ветре 12 м/с и более поправка равна нулю.
P - Атмосферное давление - приведенное к уровню моря атмосферное давление.
Po - Атмосферное давление - измеренное на уровне метеостанции атмосферное давление.
Tmin - Минимальная температура - минимум температуры воздуха на высоте 2 м над землей.
Tmax - Максимальная температура - максимум температуры воздуха на высоте 2 м над землей.
R - Количество осадков - Количество выпавших осадков за период времени, мм. При наведении курсора мыши на число - период времени, за который выпало указанное количество осадков.
R24 - Количество осадков - Количество выпавших осадков за 24 часа, мм.
S - Снежный покров - Высота снежного покрова, см. При наведении курсора мыши на число - состояние снежного покрова и степень покрытия местности в баллах.